Regional Weather Roundup
Issued by NWS

Home | Current Version | Previous Version | Graphics & Text | Print | Product List | Glossary On
Versions: 1 2 3 4 5 6 7 8 9 10 11 12 13 14 15 16 17 18 19 20 21 22 23 24 25 26 27 28 29 30 31 32 33 34 35 36 37 38 39 40 41 42 43 44 45 46 47 48 49 50
838
ASUS43 KLOT 261204
RWRIL

ILLINOIS REGIONAL WEATHER ROUNDUP
NATIONAL WEATHER SERVICE CHICAGO/ROMEOVILLE IL
700 AM CDT FRI AUG 26 2016

NOTE: "FAIR" INDICATES FEW OR NO CLOUDS BELOW 12,000 FEET WITH NO
SIGNIFICANT WEATHER AND/OR OBSTRUCTIONS TO VISIBILITY.

* THESE STATIONS ARE NOT UNDER NWS QUALITY CONTROL. THEY ALSO MAY NOT
  REPORT WEATHER SUCH AS PRECIPITATION OR FOG.

ILZ001-002-007-009-015-016-024-261300-
NORTHWEST ILLINOIS

CITY           SKY/WX    TMP DP  RH WIND       PRES   REMARKS
MOLINE         PTCLDY    65  61  87 E3        30.15R
6HR MIN TEMP:  63; 6HR MAX TEMP:  67;

STERLING*      CLOUDY    63  61  93 E3        30.16R
SAVANNA*       CLOUDY    62  61  97 CALM      30.16S
$$

ILZ003-004-008-010-011-017-018-261300-
NORTH CENTRAL ILLINOIS

CITY           SKY/WX    TMP DP  RH WIND       PRES   REMARKS
ROCKFORD       CLOUDY    64  61  90 N5        30.18R
6HR MIN TEMP:  63; 6HR MAX TEMP:  67;

FREEPORT*      MOCLDY    59  58  98 CALM      30.19R
ROCHELLE*      CLOUDY    63  61  95 CALM      30.17R
$$

ILZ005-006-012>014-019>023-261300-
NORTHEAST ILLINOIS

CITY           SKY/WX    TMP DP  RH WIND       PRES   REMARKS
CHICAGO-OHARE  MOCLDY    66  61  84 N6        30.14R
6HR MIN TEMP:  66; 6HR MAX TEMP:  69;

CHICAGO-MIDWAY CLOUDY    70  61  73 N6        30.14R
6HR MIN TEMP:  68; 6HR MAX TEMP:  71;

AURORA         MOCLDY    65  60  84 CALM      30.15R
6HR MIN TEMP:  61; 6HR MAX TEMP:  65;

LANSING*       MOCLDY    69  65  86 CALM      30.16R
JOLIET*        CLOUDY    66  65  97 CALM      30.15R
WAUKEGAN       PTCLDY    64  61  90 NW3       30.14R
6HR MIN TEMP:  63; 6HR MAX TEMP:  66;

DUPAGE AIRPORT MOCLDY    63  60  90 N5        30.14R
6HR MIN TEMP:  61; 6HR MAX TEMP:  66;

KANKAKEE*      CLOUDY    67  65  94 CALM      30.15R
WHEELING       PTCLDY    64  61  90 N3        30.15S
6HR MIN TEMP:  64; 6HR MAX TEMP:  68;

MORRIS*        MOCLDY    65  63  94 CALM      30.14R
ROMEOVILLE*    CLOUDY    64  64 100 CALM      30.15R
NORTHERLY ISL    N/A     68  60  75 N7          N/A
$$

LMZ740>746-261300-
SOUTHERN LAKE MICHIGAN

STATION/POSITION SKY/WX   TEMP    WIND        PRES    VSBY  WAVE
                          AIR SEA DIR/SP/G                  HT/PER
                          (F)     (DEG/KT/KT) (MB)    (MI)  (FT/S)
SOUTHERN BUOY              71 74  350/ 12/ 14 1019.5          2/ 4
WILMETTE HARBOR            67 67  350/  6/ 10   N/A           1/ 2
HARRISON CRIB              68     340/  8/  9   N/A
BURNHAM HARBOR             68     350/  6/  9   N/A
CALUMET HARBOR             67      CALM  /  2 1019.9R
BURNS HARBOR               73      10/  8/  9 1020.7R
MICHIGAN CITY              73     330/  8/  9   N/A
MICHIGAN CITY 6N           74 74  350/  6/  8   N/A           1/ 3
ST. JOSEPH                 74 75  350/  8/ 10 1019.7R         1/ 3
$$

ILZ025>027-034>036-040-047-049-050-058-095>099-261300-
WEST-CENTRAL ILLINOIS

CITY           SKY/WX    TMP DP  RH WIND       PRES   REMARKS
QUINCY         LGT RAIN  67  67 100 NE13      30.12R FOG
GALESBURG*     LGT RAIN  66  64  92 N3        30.15S
MACOMB*        CLOUDY    67  66  98 N3        30.17R
JACKSONVILLE*  CLOUDY    70  69  96 N5        30.12R
PITTSFIELD*    CLOUDY    70  69  97 NE6       30.12S
$$

ILZ028>032-037-038-041>044-048-051>054-059>061-261300-
CENTRAL ILLINOIS

CITY           SKY/WX    TMP DP  RH WIND       PRES   REMARKS
PONTIAC        CLOUDY    68  67  98 NE5       30.15S
BLOOMINGTON    CLOUDY    67  66  97 E6        30.15R
DECATUR        CLOUDY    70  68  93 NE5       30.12R
PEORIA         CLOUDY    68  68 100 NE3       30.14R
6HR MIN TEMP:  68; 6HR MAX TEMP:  71; 6HR PCP:  0.06;

LACON*         CLOUDY    67  65  94 CALM      30.13S
LINCOLN*       MOCLDY    69  69  99 NE3       30.13R
SPRINGFIELD    CLOUDY    71  69  93 N6        30.12R
6HR MIN TEMP:  71; 6HR MAX TEMP:  75;

TAYLORVILLE    CLOUDY    70  69  97 CALM      30.11S
6HR MIN TEMP:  69; 6HR MAX TEMP:  74; 6HR PCP:  0.09;

$$

ILZ033-039-045-046-055>057-062-063-261300-
EAST-CENTRAL ILLINOIS

CITY           SKY/WX    TMP DP  RH WIND       PRES   REMARKS
CHAMPAIGN      CLOUDY    69  67  93 NE6       30.13R
RANTOUL*       CLOUDY    70  69  96 NE3       30.13S
MATTOON        PTCLDY    71  69  93 NE6       30.11R
PARIS*         CLEAR     71  71  99 CALM      30.13S
$$

ILZ079-100>102-261300-
SOUTHWEST ILLINOIS

CITY           SKY/WX    TMP DP  RH WIND       PRES   REMARKS
ALTON          CLOUDY    70  68  94 CALM      30.11R
BELLEVILLE     CLOUDY    73  73  98 SE2       30.08R
CAHOKIA*       MOCLDY    76  72  87 NW3       30.10R
SPARTA*        CLOUDY    72  71  96 CALM      30.11R
$$

ILZ064>066-069>071-074>076-080>082-084>086-088>090-092>094-261300-
SOUTH-CENTRAL ILLINOIS

CITY           SKY/WX    TMP DP  RH WIND       PRES   REMARKS
CARBONDALE     PTCLDY    72  70  93 CALM      30.10R
6HR MIN TEMP:  70; 6HR MAX TEMP:  73;

EFFINGHAM*     MOCLDY    73  73 100 CALM      30.12R FOG
MARION         PTCLDY    75  73  94 SE6       30.11R
MT. VERNON     CLEAR     72  66  83 CALM      30.11S
CENTRALIA*     CLOUDY    73  73 100 SE3       30.10R
SALEM*         CLOUDY    75  73  91 CALM      30.10S
$$

ILZ067-068-072-073-078-083-087-091-261300-
SOUTHEAST ILLINOIS

CITY           SKY/WX    TMP DP  RH WIND       PRES   REMARKS
LAWRENCEVILLE  CLEAR     72  72 100 CALM      30.11R FOG
FLORA*         CLEAR     72  71  96 CALM      30.11R FOG
FAIRFIELD*     CLEAR     72  72  99 CALM      30.10S
HARRISBURG*    PTCLDY    72  72  99 CALM      30.11R FOG
ROBINSON*      CLEAR     69  69 100 CALM      30.12R FOG
CARMI*         CLEAR     71  71 100 CALM      30.10S FOG
$$

ABBREVIATIONS USED IN REMARKS
   TC - TEMPERATURE IN CELSIUS
  WCI - WIND CHILL INDEX
   HX - HEAT INDEX
  VSB - VISIBILITY
$$





USA.gov is the U.S. government's official web portal to all federal, state and local government web resources and services.